Le nostre stazioni meteo in Italia

Pubblicità
Il mio iltempo24.it
Kinbrace, Gran Bretagna (99016): Temperatura & dewpoint: 13.08.2018 09:00:00 - 19.08.2018 09:00:00 (BST)Kinbrace, Gran Bretagna (99016): velocità del vento & gusts: 13.08.2018 09:00:00 - 19.08.2018 09:00:00 (BST)Kinbrace, Gran Bretagna (99016): direzione del vento: 13.08.2018 09:00:00 - 19.08.2018 09:00:00 (BST)Kinbrace, Gran Bretagna (99016): precipitazioni: 13.08.2018 09:00:00 - 19.08.2018 09:00:00 (BST)
Data & Tempo tt [°C] td [°C] ff [km/h] ff [kn] fx [km/h] fx [kn] dd rr [mm]
19.08.2018 09:00:00 11,6 10,0 2 1 - - NNO -
19.08.2018 08:00:00 9,5 8,7 2 1 - - SSE 0,0
19.08.2018 07:00:00 8,1 7,6 4 2 - - ESE 0,0
19.08.2018 06:00:00 8,2 6,7 2 1 - - E 0,0
19.08.2018 05:00:00 10,3 8,3 2 1 - - SO 0,0
19.08.2018 04:00:00 11,1 8,7 5 3 - - ESE 0,0
19.08.2018 03:00:00 11,3 8,6 5 3 - - ESE 0,0
19.08.2018 02:00:00 11,4 8,6 9 5 - - OSO 0,0
19.08.2018 01:00:00 11,2 8,3 5 3 - - SSO 0,0
19.08.2018 00:00:00 10,7 7,8 8 4 - - SO 0,0
18.08.2018 23:00:00 11,3 8,1 16 9 - - O 0,0
18.08.2018 22:00:00 10,4 7,7 15 8 - - O 0,0
18.08.2018 21:00:00 11,7 8,6 18 10 - - OSO 0,0
18.08.2018 20:00:00 12,5 8,3 22 12 - - OSO 0,0
18.08.2018 19:00:00 13,7 8,3 16 9 - - OSO 0,0
18.08.2018 18:00:00 14,2 7,5 15 8 46 25 OSO 0,0
18.08.2018 17:00:00 14,6 7,2 22 12 48 26 O 0,0
18.08.2018 16:00:00 15,2 7,6 26 14 46 25 O 0,0
18.08.2018 15:00:00 17,0 8,2 26 14 50 27 O 0,0
18.08.2018 14:00:00 15,0 7,6 29 16 57 31 O 0,0
18.08.2018 13:00:00 15,1 8,5 37 20 59 32 O 0,0
18.08.2018 12:00:00 13,9 8,6 29 16 50 27 O 0,0
18.08.2018 11:00:00 14,2 7,4 34 18 61 33 O 0,0
18.08.2018 10:00:00 14,2 8,2 26 14 46 25 O 0,0
18.08.2018 09:00:00 13,2 8,9 29 16 46 25 OSO 0,0
18.08.2018 08:00:00 13,3 9,0 26 14 50 27 O 0,0
18.08.2018 07:00:00 13,2 8,6 34 18 54 29 OSO 0,0
18.08.2018 06:00:00 13,1 8,9 22 12 - - O 0,0
18.08.2018 05:00:00 12,9 8,6 29 16 48 26 O 0,0
18.08.2018 04:00:00 12,8 8,6 16 9 - - O 0,0
18.08.2018 03:00:00 13,0 8,3 13 7 - - O 0,0
18.08.2018 02:00:00 12,7 8,3 31 17 - - O 0,0
18.08.2018 01:00:00 13,0 7,7 8 4 - - ONO 0,0
18.08.2018 00:00:00 13,3 8,1 24 13 - - O 0,0
17.08.2018 23:00:00 13,4 8,6 9 5 - - ONO 0,0
17.08.2018 22:00:00 13,9 8,7 5 3 - - E 0,0
17.08.2018 21:00:00 14,5 9,4 8 4 - - ONO 0,0
17.08.2018 20:00:00 15,0 11,7 18 10 - - O 0,0
17.08.2018 19:00:00 15,1 12,8 18 10 - - O 0,0
17.08.2018 18:00:00 16,5 11,9 22 12 - - SO 0,0
17.08.2018 17:00:00 15,7 11,0 16 9 - - S 0,0
17.08.2018 16:00:00 15,4 11,0 22 12 - - S 0,0
17.08.2018 15:00:00 15,2 10,5 24 13 - - SSO 0,0
17.08.2018 14:00:00 15,0 10,6 26 14 - - S 0,0
17.08.2018 13:00:00 14,4 9,9 21 11 - - S 0,0
17.08.2018 12:00:00 13,8 9,4 18 10 - - S 0,0
17.08.2018 11:00:00 13,7 9,3 21 11 - - S 0,0
17.08.2018 10:00:00 12,9 9,0 18 10 - - S 0,0
17.08.2018 09:00:00 11,6 8,4 15 8 - - OSO 0,0
17.08.2018 08:00:00 11,6 8,0 18 10 - - OSO 0,0
17.08.2018 07:00:00 10,5 8,9 13 7 - - SSO 0,0
17.08.2018 06:00:00 9,6 8,2 11 6 - - SSO 0,0
17.08.2018 05:00:00 10,0 8,4 5 3 - - SO 0,0
17.08.2018 04:00:00 10,6 8,7 16 9 - - OSO 0,0
17.08.2018 03:00:00 10,9 8,8 9 5 - - SSO 0,0
17.08.2018 02:00:00 10,6 8,8 4 2 - - S 0,0
17.08.2018 01:00:00 11,0 9,3 11 6 - - SO 0,0
17.08.2018 00:00:00 11,2 9,5 11 6 - - SO 0,0
16.08.2018 23:00:00 11,4 9,8 13 7 - - SO 0,2
16.08.2018 22:00:00 11,7 10,2 5 3 - - S 0,2
16.08.2018 21:00:00 12,3 9,5 13 7 - - OSO 0,0
16.08.2018 20:00:00 12,7 9,6 18 10 - - OSO 0,0
16.08.2018 19:00:00 14,1 9,0 22 12 - - O -
16.08.2018 18:00:00 14,5 8,6 28 15 46 25 O 0,0
16.08.2018 17:00:00 16,5 8,8 22 12 - - O 0,0
16.08.2018 16:00:00 16,7 9,6 24 13 - - OSO 0,0
16.08.2018 15:00:00 17,0 9,8 28 15 - - O 0,0
16.08.2018 14:00:00 15,9 7,3 31 17 46 25 O 0,0
16.08.2018 13:00:00 14,9 8,2 21 11 - - OSO 0,0
16.08.2018 12:00:00 15,8 8,9 18 10 - - SO 0,0
16.08.2018 11:00:00 14,0 9,5 22 12 - - SSO 0,0
16.08.2018 10:00:00 13,8 9,4 21 11 - - S 0,0
16.08.2018 09:00:00 13,1 8,9 13 7 - - S 0,0
16.08.2018 08:00:00 12,3 8,9 15 8 - - S 0,0
16.08.2018 07:00:00 10,7 8,5 11 6 - - S 0,0
16.08.2018 06:00:00 8,0 7,1 5 3 - - ESE 0,0
16.08.2018 05:00:00 6,6 5,8 9 5 - - E 0,0
16.08.2018 04:00:00 5,3 4,8 4 2 - - ESE 0,0
16.08.2018 03:00:00 5,4 4,3 5 3 - - NNE 0,0
16.08.2018 02:00:00 6,8 6,0 9 5 - - E 0,0
16.08.2018 01:00:00 8,2 6,3 4 2 - - SSO 0,0
16.08.2018 00:00:00 10,7 7,8 8 4 - - SSE 0,0
15.08.2018 23:00:00 11,3 8,8 9 5 - - S 0,0
15.08.2018 22:00:00 11,2 8,4 4 2 - - O 0,0
15.08.2018 21:00:00 14,0 9,1 18 10 - - SE 0,0
15.08.2018 20:00:00 15,3 9,5 16 9 - - SSE 0,0
15.08.2018 19:00:00 14,7 9,6 13 7 - - S 0,0
15.08.2018 18:00:00 14,9 10,1 21 11 - - SSE 0,0
15.08.2018 17:00:00 13,8 10,3 18 10 - - SSE 0,2
15.08.2018 16:00:00 13,7 9,5 21 11 - - SSO 0,0
15.08.2018 15:00:00 16,0 8,7 21 11 - - SSO 0,0
15.08.2018 14:00:00 15,8 10,3 13 7 - - SSO 0,0
15.08.2018 13:00:00 16,0 12,6 11 6 - - O 0,0
15.08.2018 12:00:00 17,0 12,6 13 7 - - S 0,0
15.08.2018 11:00:00 16,8 13,0 11 6 - - SSO 0,0
15.08.2018 10:00:00 15,8 13,1 8 4 - - SO 0,0
15.08.2018 09:00:00 14,6 12,7 5 3 - - S 0,0
15.08.2018 08:00:00 13,8 12,5 8 4 - - SSE 0,0
15.08.2018 07:00:00 13,0 10,9 8 4 - - E 0,0
15.08.2018 06:00:00 12,7 10,3 13 7 - - SSE 0,0
15.08.2018 05:00:00 11,7 10,1 8 4 - - SSE 0,0
15.08.2018 04:00:00 11,2 9,8 4 2 - - S 0,0
15.08.2018 03:00:00 11,5 9,9 4 2 - - ESE 0,0
15.08.2018 02:00:00 11,5 9,4 5 3 - - S 0,0
15.08.2018 01:00:00 12,8 9,4 13 7 - - O 0,0
15.08.2018 00:00:00 13,1 8,8 4 2 - - OSO 0,0
14.08.2018 23:00:00 13,9 10,1 8 4 - - ESE 0,0
14.08.2018 22:00:00 14,1 10,8 26 14 - - O 0,0
14.08.2018 21:00:00 14,9 11,4 24 13 - - OSO 0,0
14.08.2018 20:00:00 15,4 12,4 9 5 - - O 0,0
14.08.2018 19:00:00 16,3 13,1 18 10 - - O 0,0
14.08.2018 18:00:00 17,4 13,8 24 13 - - O 0,0
14.08.2018 17:00:00 17,2 14,9 15 8 - - SSO 0,2
14.08.2018 16:00:00 16,1 14,1 16 9 - - S 0,0
14.08.2018 15:00:00 15,2 13,7 15 8 - - SE 0,0
14.08.2018 14:00:00 15,0 13,6 18 10 - - SE 1,8
14.08.2018 13:00:00 14,8 13,6 9 5 - - S 1,8
14.08.2018 12:00:00 14,0 13,0 5 3 - - S 2,6
14.08.2018 11:00:00 14,5 12,9 9 5 - - SO 0,4
14.08.2018 10:00:00 14,9 12,8 8 4 - - S 0,0
14.08.2018 09:00:00 14,6 12,5 9 5 - - S 0,0
14.08.2018 08:00:00 13,9 12,0 2 1 - - SE 0,0
14.08.2018 07:00:00 13,1 11,9 5 3 - - ESE 0,0
14.08.2018 06:00:00 12,7 11,9 2 1 - - ESE 0,0
14.08.2018 05:00:00 12,4 12,0 2 1 - - ENE 0,0
14.08.2018 04:00:00 12,4 11,8 5 3 - - S 0,0
14.08.2018 03:00:00 12,7 12,1 4 2 - - SO 0,0
14.08.2018 02:00:00 13,2 12,5 9 5 - - SSE 0,0
14.08.2018 01:00:00 13,0 12,5 8 4 - - SSE 0,0
14.08.2018 00:00:00 12,6 12,1 2 1 - - SSE 0,4
13.08.2018 23:00:00 12,8 12,0 4 2 - - SSO 0,0
13.08.2018 22:00:00 12,7 11,7 4 2 - - S 0,0
13.08.2018 21:00:00 12,9 11,9 8 4 - - ESE 0,2
13.08.2018 20:00:00 13,7 11,7 11 6 - - SE 0,0
13.08.2018 19:00:00 13,6 11,8 13 7 - - SE 0,0
13.08.2018 18:00:00 13,9 11,7 18 10 - - SE 0,0
13.08.2018 17:00:00 14,5 11,9 18 10 - - SE 0,0
13.08.2018 16:00:00 14,1 11,7 22 12 - - SE 0,0
13.08.2018 15:00:00 13,7 10,9 21 11 - - SE 0,0
13.08.2018 14:00:00 14,1 11,1 18 10 - - SE 0,0
13.08.2018 13:00:00 13,6 11,3 21 11 - - SE 0,0
13.08.2018 12:00:00 13,4 11,2 22 12 - - SE 0,0
13.08.2018 11:00:00 13,4 11,0 18 10 - - SE 0,0
13.08.2018 10:00:00 13,1 11,1 16 9 - - SE 0,0
13.08.2018 09:00:00 12,7 11,0 18 10 - - SE 0,0

tt = Temperatura
td = dewpoint
ff = velocità del vento
fx = gusts
dd = direzione del vento
rr = precipitazioni

Stazioni seguenti

WeatherPro
AMSI
MeteoEarth